Time,TemperatureF,DewpointF,PressureIn,WindDirection,WindDirectionDegrees,WindSpeedMPH,WindSpeedGustMPH,Humidity,HourlyPrecipIn,Conditions,Clouds,dailyrainin,SoftwareType,DateUTC
2013-03-27 05:00:00,77.0,69.0,30.13,North,10,3.0,-999.0,78,-99.99,,,-99.99,,2013-03-27 05:00:00,
2013-03-27 05:52:00,77.0,69.0,30.13,North,10,3.0,-999.0,78,-99.99,,,-99.99,,2013-03-27 05:52:00,
2013-03-27 06:00:00,77.0,70.0,30.11,NE,50,6.0,-999.0,80,-99.99,,,-99.99,,2013-03-27 06:00:00,
2013-03-27 06:21:00,77.0,70.0,30.11,NE,50,6.0,-999.0,80,-99.99,,,-99.99,,2013-03-27 06:21:00,
2013-03-27 06:31:00,77.0,70.0,30.11,NE,50,6.0,-999.0,80,-99.99,,,-99.99,,2013-03-27 06:31:00,
2013-03-27 06:41:00,77.0,70.0,30.11,NE,50,6.0,-999.0,80,-99.99,,,-99.99,,2013-03-27 06:41:00,
2013-03-27 06:51:00,77.0,70.0,30.11,NE,50,6.0,-999.0,80,-99.99,,,-99.99,,2013-03-27 06:51:00,
2013-03-27 09:00:00,76.0,70.0,30.13,North,10,2.0,-999.0,79,-99.99,,,-99.99,,2013-03-27 09:00:00,
2013-03-27 09:11:00,76.0,70.0,30.13,North,10,2.0,-999.0,79,-99.99,,,-99.99,,2013-03-27 09:11:00,
2013-03-27 09:21:00,76.0,70.0,30.13,North,10,2.0,-999.0,79,-99.99,,,-99.99,,2013-03-27 09:21:00,
2013-03-27 09:32:00,76.0,70.0,30.13,North,10,2.0,-999.0,79,-99.99,,,-99.99,,2013-03-27 09:32:00,
2013-03-27 09:41:00,76.0,70.0,30.13,North,10,2.0,-999.0,79,-99.99,,,-99.99,,2013-03-27 09:41:00,
2013-03-27 09:52:00,76.0,70.0,30.13,North,10,2.0,-999.0,79,-99.99,,,-99.99,,2013-03-27 09:52:00,
2013-03-27 10:00:00,80.0,71.0,30.14,SSE,160,2.0,-999.0,73,-99.99,,,-99.99,,2013-03-27 10:00:00,
2013-03-27 10:12:00,80.0,71.0,30.14,SSE,160,2.0,-999.0,73,-99.99,,,-99.99,,2013-03-27 10:12:00,
2013-03-27 10:22:00,80.0,71.0,30.14,SSE,160,2.0,-999.0,73,-99.99,,,-99.99,,2013-03-27 10:22:00,
2013-03-27 10:31:00,80.0,71.0,30.14,SSE,160,2.0,-999.0,73,-99.99,,,-99.99,,2013-03-27 10:31:00,
2013-03-27 10:41:00,80.0,71.0,30.14,SSE,160,2.0,-999.0,73,-99.99,,,-99.99,,2013-03-27 10:41:00,
2013-03-27 10:52:00,80.0,71.0,30.14,SSE,160,2.0,-999.0,73,-99.99,,,-99.99,,2013-03-27 10:52:00,
2013-03-27 20:00:00,78.0,70.0,30.08,West,260,9.0,-999.0,75,-99.99,,,-99.99,,2013-03-27 20:00:00,
2013-03-27 20:21:00,78.0,70.0,30.08,West,260,9.0,-999.0,75,-99.99,,,-99.99,,2013-03-27 20:21:00,
2013-03-27 20:31:00,78.0,70.0,30.08,West,260,9.0,-999.0,75,-99.99,,,-99.99,,2013-03-27 20:31:00,
2013-03-27 20:41:00,78.0,70.0,30.08,West,260,9.0,-999.0,75,-99.99,,,-99.99,,2013-03-27 20:41:00,
2013-03-27 20:51:00,78.0,70.0,30.08,West,260,9.0,-999.0,75,-99.99,,,-99.99,,2013-03-27 20:51:00,
2013-03-27 21:00:00,80.0,71.0,30.09,West,260,9.0,-999.0,73,-99.99,,,-99.99,,2013-03-27 21:00:00,
2013-03-27 21:11:00,80.0,71.0,30.09,West,260,9.0,-999.0,73,-99.99,,,-99.99,,2013-03-27 21:11:00,
2013-03-27 21:31:00,80.0,71.0,30.09,West,260,9.0,-999.0,73,-99.99,,,-99.99,,2013-03-27 21:31:00,
2013-03-27 21:42:00,80.0,71.0,30.09,West,260,9.0,-999.0,73,-99.99,,,-99.99,,2013-03-27 21:42:00,
2013-03-27 21:52:00,80.0,71.0,30.09,West,260,9.0,-999.0,73,-99.99,,,-99.99,,2013-03-27 21:52:00,
2013-03-27 22:00:00,78.0,70.0,30.11,West,260,9.0,-999.0,76,-99.99,,,-99.99,,2013-03-27 22:00:00,
2013-03-27 22:12:00,78.0,70.0,30.11,West,260,9.0,-999.0,76,-99.99,,,-99.99,,2013-03-27 22:12:00,
2013-03-27 22:22:00,78.0,70.0,30.11,West,260,9.0,-999.0,76,-99.99,,,-99.99,,2013-03-27 22:22:00,
2013-03-27 22:32:00,78.0,70.0,30.11,West,260,9.0,-999.0,76,-99.99,,,-99.99,,2013-03-27 22:32:00,
2013-03-27 22:41:00,78.0,70.0,30.11,West,260,9.0,-999.0,76,-99.99,,,-99.99,,2013-03-27 22:41:00,
2013-03-27 22:52:00,78.0,70.0,30.11,West,260,9.0,-999.0,76,-99.99,,,-99.99,,2013-03-27 22:52:00,
2013-03-27 23:11:00,78.0,70.0,30.11,West,280,9.0,-999.0,78,-99.99,,,-99.99,,2013-03-27 23:11:00,
2013-03-27 23:21:00,78.0,70.0,30.11,West,280,9.0,-999.0,78,-99.99,,,-99.99,,2013-03-27 23:21:00,
2013-03-27 23:31:00,78.0,70.0,30.11,West,280,9.0,-999.0,78,-99.99,,,-99.99,,2013-03-27 23:31:00,
2013-03-27 23:42:00,78.0,70.0,30.11,West,280,9.0,-999.0,78,-99.99,,,-99.99,,2013-03-27 23:42:00,
2013-03-27 23:51:00,78.0,70.0,30.11,West,280,9.0,-999.0,78,-99.99,,,-99.99,,2013-03-27 23:51:00,